Вернуться в каталог

STARLINK-35105

АктивенСвязьSSO
NORAD 65543·PAYLOAD·🇺🇸 United States

Запущен Sep 6, 2025 с Cape Canaveral Space Force Station

Loading…

Ближайшие Пролёты (ближайшие 24 часа)

TLE

СвежийSource: CelesTrak SupGP

Эпоха: Sep 15, 2026, 03:09 UTC

1 65543C 25200Z   26258.13173611  .00074106  00000+0  22985-2 0  2581
2 65543  97.2849 324.5900 0000926 100.3472  59.8330 15.33428373    19

Отслеживайте STARLINK-35105 в реальном времени с AllMySat

Download on the App Store